| time (UTC) | temp F | wind direction | speed knots | gust knots | rain 1hr in | rain 24hr in | rain mn in | humidity % | barometer mb |
| 20260505201036 | 79 | 307 | 6.1 | 7.0 | 0.00 | 0.00 | 0.00 | 41 | 1009.8 |
| 20260505200534 | 78 | 327 | 5.2 | 6.1 | 0.00 | 0.00 | 0.00 | 40 | 1010.1 |
| 20260505200030 | 78 | 292 | 7.8 | 8.7 | 0.00 | 0.00 | 0.00 | 41 | 1010.2 |
| 20260505195526 | 78 | 305 | 6.1 | 7.0 | 0.00 | 0.00 | 0.00 | 43 | 1010.5 |
| 20260505195024 | 79 | 316 | 7.8 | 8.7 | 0.00 | 0.00 | 0.00 | 41 | 1010.7 |
| 20260505194521 | 78 | 322 | 8.7 | 9.6 | 0.00 | 0.00 | 0.00 | 39 | 1010.5 |
| 20260505194016 | 79 | 298 | 9.6 | 12.2 | 0.00 | 0.00 | 0.00 | 40 | 1010.6 |
| 20260505193514 | 78 | 328 | 7.8 | 8.7 | 0.00 | 0.00 | 0.00 | 42 | 1010.8 |
| 20260505193011 | 78 | 254 | 7.8 | 8.7 | 0.00 | 0.00 | 0.00 | 40 | 1010.7 |
| 20260505192509 | 79 | 306 | 7.8 | 8.7 | 0.00 | 0.00 | 0.00 | 41 | 1010.6 |
| 20260505192007 | 78 | 268 | 6.1 | 7.0 | 0.00 | 0.00 | 0.00 | 43 | 1011.1 |
| 20260505191505 | 78 | 341 | 3.5 | 5.2 | 0.00 | 0.00 | 0.00 | 42 | 1011.0 |
| 20260505191002 | 77 | 297 | 5.2 | 7.0 | 0.00 | 0.00 | 0.00 | 43 | 1010.9 |
| 20260505190457 | 77 | 311 | 8.7 | 12.2 | 0.00 | 0.00 | 0.00 | 40 | 1011.0 |
| 20260505185952 | 79 | 307 | 7.8 | 8.7 | 0.00 | 0.00 | 0.00 | 40 | 1011.0 |
| 20260505185450 | 77 | 269 | 4.3 | 5.2 | 0.00 | 0.00 | 0.00 | 41 | 1011.2 |
| 20260505184946 | 78 | 310 | 7.0 | 12.2 | 0.00 | 0.00 | 0.00 | 44 | 1011.1 |
| 20260505184443 | 77 | 290 | 5.2 | 6.1 | 0.00 | 0.00 | 0.00 | 41 | 1011.2 |
| 20260505183939 | 77 | 313 | 5.2 | 7.8 | 0.00 | 0.00 | 0.00 | 42 | 1011.2 |
| 20260505183437 | 77 | 292 | 5.2 | 6.1 | 0.00 | 0.00 | 0.00 | 44 | 1011.2 |
| 20260505182933 | 77 | 307 | 8.7 | 13.9 | 0.00 | 0.00 | 0.00 | 41 | 1011.3 |
| 20260505182430 | 77 | 254 | 4.3 | 5.2 | 0.00 | 0.00 | 0.00 | 40 | 1011.4 |
| 20260505181926 | 76 | 260 | 5.2 | 7.8 | 0.00 | 0.00 | 0.00 | 41 | 1011.3 |
| 20260505181424 | 77 | 313 | 6.1 | 7.8 | 0.00 | 0.00 | 0.00 | 41 | 1011.7 |
| 20260505180921 | 77 | 258 | 7.8 | 8.7 | 0.00 | 0.00 | 0.00 | 41 | 1011.9 |
| 20260505180417 | 77 | 285 | 2.6 | 3.5 | 0.00 | 0.00 | 0.00 | 39 | 1011.8 |
| 20260505175914 | 77 | 307 | 6.1 | 7.0 | 0.00 | 0.00 | 0.00 | 41 | 1012.1 |
| 20260505175410 | 77 | 282 | 8.7 | 9.6 | 0.00 | 0.00 | 0.00 | 40 | 1012.2 |
| 20260505174906 | 77 | 313 | 7.0 | 8.7 | 0.00 | 0.00 | 0.00 | 41 | 1012.1 |
| 20260505174404 | 76 | 284 | 7.0 | 7.8 | 0.00 | 0.00 | 0.00 | 40 | 1012.3 |
| 20260505173900 | 77 | 309 | 7.0 | 8.7 | 0.00 | 0.00 | 0.00 | 41 | 1012.3 |
| 20260505173356 | 76 | 300 | 10.4 | 12.2 | 0.00 | 0.00 | 0.00 | 39 | 1012.3 |
| 20260505172854 | 76 | 300 | 8.7 | 8.7 | 0.00 | 0.00 | 0.00 | 39 | 1012.0 |
| 20260505172352 | 77 | 247 | 3.5 | 3.5 | 0.00 | 0.00 | 0.00 | 41 | 1012.2 |
| 20260505171851 | 77 | 286 | 7.0 | 7.8 | 0.00 | 0.00 | 0.00 | 39 | 1012.1 |
| 20260505171348 | 76 | 295 | 4.3 | 5.2 | 0.00 | 0.00 | 0.00 | 42 | 1012.0 |
| 20260505170844 | 77 | 301 | 7.0 | 7.8 | 0.00 | 0.00 | 0.00 | 37 | 1011.8 |
| 20260505170342 | 76 | 331 | 2.6 | 3.5 | 0.00 | 0.00 | 0.00 | 42 | 1011.9 |
| 20260505165837 | 75 | 306 | 4.3 | 6.1 | 0.00 | 0.00 | 0.00 | 44 | 1012.1 |
| 20260505165333 | 76 | 304 | 15.6 | 19.1 | 0.00 | 0.00 | 0.00 | 39 | 1012.1 |
| 20260505164829 | 75 | 275 | 2.6 | 5.2 | 0.00 | 0.00 | 0.00 | 41 | 1012.0 |
| 20260505164325 | 77 | 294 | 3.5 | 3.5 | 0.00 | 0.00 | 0.00 | 40 | 1012.1 |
| 20260505163824 | 76 | 310 | 5.2 | 7.0 | 0.00 | 0.00 | 0.00 | 42 | 1012.4 |
| 20260505163322 | 75 | 288 | 5.2 | 7.0 | 0.00 | 0.00 | 0.00 | 41 | 1012.4 |
| 20260505162820 | 75 | 333 | 7.8 | 8.7 | 0.00 | 0.00 | 0.00 | 41 | 1012.2 |
| 20260505162316 | 74 | 358 | 2.6 | 3.5 | 0.00 | 0.00 | 0.00 | 49 | 1012.4 |
| 20260505161813 | 74 | 280 | 5.2 | 7.0 | 0.00 | 0.00 | 0.00 | 45 | 1012.5 |
| 20260505161310 | 74 | 285 | 7.8 | 7.8 | 0.00 | 0.00 | 0.00 | 43 | 1012.6 |
| 20260505160808 | 74 | 262 | 5.2 | 7.0 | 0.00 | 0.00 | 0.00 | 50 | 1013.0 |
| 20260505160306 | 74 | 254 | 4.3 | 6.1 | 0.00 | 0.00 | 0.00 | 47 | 1013.0 |
| 20260505153244 | 73 | 262 | 3.5 | 3.5 | 0.00 | 0.00 | 0.00 | 58 | 1013.0 |
| 20260505152741 | 72 | 321 | 4.3 | 6.1 | 0.00 | 0.00 | 0.00 | 59 | 1013.1 |
| 20260505152237 | 72 | 314 | 7.8 | 8.7 | 0.00 | 0.00 | 0.00 | 57 | 1013.1 |
| 20260505151732 | 71 | 301 | 7.8 | 8.7 | 0.00 | 0.00 | 0.00 | 61 | 1012.9 |
| 20260505151230 | 71 | 265 | 3.5 | 3.5 | 0.00 | 0.00 | 0.00 | 63 | 1012.9 |
| 20260505150726 | 70 | 302 | 2.6 | 3.5 | 0.00 | 0.00 | 0.00 | 67 | 1013.0 |
| 20260505150223 | 70 | 306 | 5.2 | 7.0 | 0.00 | 0.00 | 0.00 | 65 | 1013.0 |
| 20260505140651 | 65 | 260 | 3.5 | 3.5 | 0.00 | 0.00 | 0.00 | 78 | 1012.7 |
| 20260505140148 | 65 | 275 | 3.5 | 3.5 | 0.00 | 0.00 | 0.00 | 78 | 1012.8 |
| 20260505130112 | 59 | 304 | 5.2 | 5.2 | 0.00 | 0.00 | 0.00 | 85 | 1012.3 |
| 20260505124601 | 59 | 314 | 4.3 | 5.2 | 0.00 | 0.00 | 0.00 | 86 | 1012.3 |
| 20260505124058 | 58 | 288 | 4.3 | 5.2 | 0.00 | 0.00 | 0.00 | 86 | 1012.5 |
| 20260505123554 | 59 | 253 | 3.5 | 3.5 | 0.00 | 0.00 | 0.00 | 85 | 1012.3 |
| 20260505123050 | 58 | 306 | 2.6 | 2.6 | 0.00 | 0.00 | 0.00 | 86 | 1012.4 |
| 20260505122547 | 58 | 286 | 3.5 | 3.5 | 0.00 | 0.00 | 0.00 | 86 | 1012.6 |
| 20260505122044 | 58 | 291 | 3.5 | 3.5 | 0.00 | 0.00 | 0.00 | 87 | 1012.5 |
| 20260505121541 | 57 | 287 | 2.6 | 2.6 | 0.00 | 0.00 | 0.00 | 87 | 1012.2 |
| 20260505121038 | 57 | 315 | 0.9 | 0.9 | 0.00 | 0.00 | 0.00 | 88 | 1012.0 |
| 20260505120534 | 57 | 328 | 2.6 | 2.6 | 0.00 | 0.00 | 0.00 | 88 | 1011.9 |
| 20260505120030 | 56 | 298 | 0.9 | 0.9 | 0.00 | 0.00 | 0.00 | 89 | 1011.9 |
| 20260505115524 | 56 | 299 | 0.9 | 0.9 | 0.00 | 0.00 | 0.00 | 89 | 1011.9 |
| 20260505115022 | 56 | 296 | 0.9 | 0.9 | 0.00 | 0.00 | 0.00 | 90 | 1011.8 |
| 20260505114519 | 55 | 298 | 0.0 | 0.0 | 0.00 | 0.00 | 0.00 | 91 | 1011.7 |
| 20260505114015 | 55 | 300 | 0.9 | 0.9 | 0.00 | 0.00 | 0.00 | 92 | 1011.8 |
| 20260505113512 | 54 | 315 | 1.7 | 1.7 | 0.00 | 0.00 | 0.00 | 92 | 1011.6 |
| 20260505113009 | 54 | 311 | 1.7 | 1.7 | 0.00 | 0.00 | 0.00 | 92 | 1011.8 |
| 20260505112505 | 53 | 311 | 0.0 | 0.0 | 0.00 | 0.00 | 0.00 | 93 | 1011.8 |
| 20260505112003 | 53 | 311 | 0.0 | 0.0 | 0.00 | 0.00 | 0.00 | 92 | 1011.9 |
| 20260505111456 | 53 | 313 | 0.9 | 1.7 | 0.00 | 0.00 | 0.00 | 92 | 1011.5 |
| 20260505110953 | 53 | 314 | 1.7 | 1.7 | 0.00 | 0.00 | 0.00 | 92 | 1011.8 |
| 20260505110449 | 53 | 309 | 1.7 | 1.7 | 0.00 | 0.00 | 0.00 | 92 | 1011.6 |
| 20260505101920 | 54 | 316 | 2.6 | 2.6 | 0.00 | 0.00 | 0.00 | 91 | 1011.7 |
| 20260505101415 | 53 | 310 | 1.7 | 1.7 | 0.00 | 0.00 | 0.00 | 91 | 1011.6 |
| 20260505100911 | 53 | 317 | 2.6 | 2.6 | 0.00 | 0.00 | 0.00 | 91 | 1011.6 |
| 20260505100408 | 53 | 309 | 1.7 | 1.7 | 0.00 | 0.00 | 0.00 | 91 | 1011.5 |
| 20260505095903 | 52 | 313 | 0.9 | 0.9 | 0.00 | 0.00 | 0.00 | 91 | 1011.5 |
| 20260505095401 | 52 | 305 | 0.0 | 0.0 | 0.00 | 0.00 | 0.00 | 90 | 1011.7 |
| 20260505094857 | 53 | 305 | 0.9 | 0.9 | 0.00 | 0.00 | 0.00 | 90 | 1011.6 |
| 20260505094354 | 53 | 310 | 0.9 | 0.9 | 0.00 | 0.00 | 0.00 | 89 | 1011.6 |
| 20260505093850 | 53 | 306 | 0.9 | 0.9 | 0.00 | 0.00 | 0.00 | 88 | 1011.4 |
| 20260505093347 | 54 | 311 | 1.7 | 1.7 | 0.00 | 0.00 | 0.00 | 88 | 1011.4 |
| 20260505092844 | 54 | 309 | 2.6 | 2.6 | 0.00 | 0.00 | 0.00 | 88 | 1011.5 |
| 20260505092343 | 54 | 311 | 2.6 | 2.6 | 0.00 | 0.00 | 0.00 | 87 | 1011.3 |
| 20260505091839 | 54 | 314 | 1.7 | 1.7 | 0.00 | 0.00 | 0.00 | 87 | 1011.4 |
| 20260505091337 | 54 | 318 | 1.7 | 2.6 | 0.00 | 0.00 | 0.00 | 87 | 1011.2 |
| 20260505090835 | 54 | 304 | 2.6 | 2.6 | 0.00 | 0.00 | 0.00 | 87 | 1011.3 |
| 20260505090333 | 54 | 313 | 3.5 | 3.5 | 0.00 | 0.00 | 0.00 | 86 | 1011.3 |
| 20260505085830 | 54 | 310 | 2.6 | 2.6 | 0.00 | 0.00 | 0.00 | 86 | 1011.3 |
| 20260505085328 | 54 | 312 | 3.5 | 3.5 | 0.00 | 0.00 | 0.00 | 86 | 1011.3 |
| 20260505084826 | 54 | 307 | 4.3 | 5.2 | 0.00 | 0.00 | 0.00 | 85 | 1011.2 |
| 20260505084324 | 54 | 293 | 3.5 | 3.5 | 0.00 | 0.00 | 0.00 | 85 | 1011.2 |
| 20260505083820 | 55 | 286 | 3.5 | 3.5 | 0.00 | 0.00 | 0.00 | 84 | 1011.1 |
| 20260505083318 | 54 | 307 | 3.5 | 3.5 | 0.00 | 0.00 | 0.00 | 84 | 1011.0 |
| 20260505082815 | 55 | 291 | 3.5 | 5.2 | 0.00 | 0.00 | 0.00 | 84 | 1011.1 |
| 20260505082311 | 54 | 302 | 4.3 | 5.2 | 0.00 | 0.00 | 0.00 | 84 | 1011.0 |
| 20260505081807 | 54 | 303 | 1.7 | 2.6 | 0.00 | 0.00 | 0.00 | 84 | 1011.2 |
| 20260505081304 | 54 | 310 | 2.6 | 2.6 | 0.00 | 0.00 | 0.00 | 84 | 1011.2 |
| 20260505080801 | 54 | 296 | 2.6 | 2.6 | 0.00 | 0.00 | 0.00 | 84 | 1011.0 |
| 20260505080256 | 54 | 305 | 2.6 | 2.6 | 0.00 | 0.00 | 0.00 | 84 | 1011.0 |
| 20260505075752 | 54 | 322 | 2.6 | 2.6 | 0.00 | 0.00 | 0.00 | 83 | 1011.1 |
| 20260505075250 | 54 | 322 | 1.7 | 1.7 | 0.00 | 0.00 | 0.00 | 83 | 1011.0 |
| 20260505074747 | 54 | 302 | 0.0 | 0.9 | 0.00 | 0.00 | 0.00 | 82 | 1011.1 |
| 20260505074244 | 54 | 303 | 0.9 | 0.9 | 0.00 | 0.00 | 0.00 | 82 | 1010.9 |
| 20260505073742 | 55 | 301 | 0.9 | 0.9 | 0.00 | 0.00 | 0.00 | 81 | 1010.9 |
| 20260505073239 | 55 | 299 | 1.7 | 1.7 | 0.00 | 0.00 | 0.00 | 81 | 1011.0 |
| 20260505072736 | 55 | 302 | 1.7 | 1.7 | 0.00 | 0.00 | 0.00 | 80 | 1010.8 |
| 20260505072232 | 55 | 297 | 1.7 | 1.7 | 0.00 | 0.00 | 0.00 | 79 | 1011.0 |
| 20260505071727 | 55 | 314 | 1.7 | 1.7 | 0.00 | 0.00 | 0.00 | 79 | 1011.0 |
| 20260505071225 | 55 | 290 | 1.7 | 2.6 | 0.00 | 0.00 | 0.00 | 79 | 1010.9 |
| 20260505070722 | 55 | 294 | 1.7 | 1.7 | 0.00 | 0.00 | 0.00 | 78 | 1010.7 |
| 20260505070218 | 55 | 314 | 1.7 | 1.7 | 0.00 | 0.00 | 0.00 | 78 | 1010.8 |
| 20260505065714 | 55 | 298 | 1.7 | 1.7 | 0.00 | 0.00 | 0.00 | 77 | 1010.7 |
| 20260505065211 | 56 | 312 | 0.9 | 0.9 | 0.00 | 0.00 | 0.00 | 77 | 1011.0 |
| 20260505064708 | 56 | 317 | 1.7 | 1.7 | 0.00 | 0.00 | 0.00 | 76 | 1010.5 |
| 20260505064206 | 56 | 306 | 0.9 | 0.9 | 0.00 | 0.00 | 0.00 | 75 | 1010.8 |
| 20260505063704 | 56 | 293 | 2.6 | 3.5 | 0.00 | 0.00 | 0.00 | 75 | 1010.8 |
| 20260505063159 | 56 | 293 | 3.5 | 3.5 | 0.00 | 0.00 | 0.00 | 74 | 1010.8 |
| 20260505062655 | 57 | 301 | 2.6 | 2.6 | 0.00 | 0.00 | 0.00 | 74 | 1010.7 |
| 20260505062154 | 57 | 320 | 2.6 | 2.6 | 0.00 | 0.00 | 0.00 | 73 | 1010.8 |
| 20260505061650 | 57 | 294 | 3.5 | 3.5 | 0.00 | 0.00 | 0.00 | 73 | 1010.8 |
| 20260505061148 | 57 | 301 | 1.7 | 1.7 | 0.00 | 0.00 | 0.00 | 72 | 1010.9 |
| 20260505060645 | 57 | 324 | 1.7 | 1.7 | 0.00 | 0.00 | 0.00 | 72 | 1010.8 |
| 20260505060142 | 57 | 323 | 1.7 | 1.7 | 0.00 | 0.00 | 0.00 | 71 | 1010.9 |
| 20260505055637 | 58 | 296 | 0.9 | 0.9 | 0.00 | 0.00 | 0.00 | 71 | 1011.0 |
| 20260505055134 | 58 | 300 | 0.9 | 0.9 | 0.00 | 0.00 | 0.00 | 71 | 1011.0 |
| 20260505054632 | 58 | 240 | 3.5 | 3.5 | 0.00 | 0.00 | 0.00 | 68 | 1011.1 |
| 20260505054130 | 59 | 268 | 1.7 | 2.6 | 0.00 | 0.00 | 0.00 | 68 | 1011.3 |
| 20260505053627 | 59 | 299 | 0.9 | 0.9 | 0.00 | 0.00 | 0.00 | 67 | 1010.9 |
| 20260505053123 | 59 | 293 | 1.7 | 1.7 | 0.00 | 0.00 | 0.00 | 66 | 1011.3 |
| 20260505052620 | 59 | 286 | 3.5 | 3.5 | 0.00 | 0.00 | 0.00 | 66 | 1011.1 |
| 20260505052118 | 59 | 237 | 1.7 | 2.6 | 0.00 | 0.00 | 0.00 | 65 | 1011.2 |
| 20260505051614 | 59 | 306 | 0.9 | 0.9 | 0.00 | 0.00 | 0.00 | 65 | 1011.4 |
| 20260505051113 | 59 | 280 | 1.7 | 1.7 | 0.00 | 0.00 | 0.00 | 65 | 1011.1 |
| 20260505050610 | 59 | 254 | 1.7 | 2.6 | 0.00 | 0.00 | 0.00 | 65 | 1011.2 |
| 20260505050108 | 60 | 291 | 2.6 | 2.6 | 0.00 | 0.00 | 0.00 | 63 | 1010.9 |
| 20260505041538 | 61 | 311 | 1.7 | 1.7 | 0.00 | 0.00 | 0.00 | 61 | 1011.1 |
| 20260505041035 | 61 | 301 | 0.9 | 0.9 | 0.00 | 0.00 | 0.00 | 61 | 1011.2 |
| 20260505040532 | 61 | 305 | 1.7 | 1.7 | 0.00 | 0.00 | 0.00 | 61 | 1011.4 |
| 20260505040030 | 62 | 295 | 1.7 | 2.6 | 0.00 | 0.00 | 0.00 | 59 | 1011.4 |
| 20260505035525 | 62 | 295 | 2.6 | 2.6 | 0.00 | 0.00 | 0.00 | 59 | 1011.3 |
| 20260505035022 | 62 | 311 | 1.7 | 1.7 | 0.00 | 0.00 | 0.00 | 59 | 1011.3 |
| 20260505034519 | 62 | 311 | 2.6 | 2.6 | 0.00 | 0.00 | 0.00 | 59 | 1011.2 |
| 20260505034016 | 62 | 280 | 2.6 | 2.6 | 0.00 | 0.00 | 0.00 | 58 | 1011.3 |
| 20260505033513 | 62 | 303 | 4.3 | 6.1 | 0.00 | 0.00 | 0.00 | 58 | 1011.4 |
| 20260505033011 | 63 | 303 | 2.6 | 2.6 | 0.00 | 0.00 | 0.00 | 58 | 1011.4 |
| 20260505032508 | 63 | 301 | 2.6 | 2.6 | 0.00 | 0.00 | 0.00 | 58 | 1011.3 |
| 20260505032005 | 63 | 303 | 1.7 | 2.6 | 0.00 | 0.00 | 0.00 | 57 | 1011.5 |
| 20260505031502 | 63 | 301 | 2.6 | 2.6 | 0.00 | 0.00 | 0.00 | 57 | 1011.5 |
| 20260505030958 | 63 | 302 | 1.7 | 1.7 | 0.00 | 0.00 | 0.00 | 57 | 1011.5 |
| 20260505030455 | 63 | 304 | 1.7 | 2.6 | 0.00 | 0.00 | 0.00 | 57 | 1011.1 |
| 20260505025950 | 63 | 303 | 2.6 | 2.6 | 0.00 | 0.00 | 0.00 | 57 | 1011.4 |
| 20260505025447 | 63 | 289 | 3.5 | 3.5 | 0.00 | 0.00 | 0.00 | 57 | 1011.3 |
| 20260505024946 | 64 | 307 | 1.7 | 2.6 | 0.00 | 0.00 | 0.00 | 57 | 1011.3 |
| 20260505024443 | 64 | 305 | 1.7 | 2.6 | 0.00 | 0.00 | 0.00 | 56 | 1011.1 |
| 20260505023940 | 64 | 299 | 1.7 | 1.7 | 0.00 | 0.00 | 0.00 | 56 | 1011.2 |
| 20260505023437 | 64 | 299 | 2.6 | 2.6 | 0.00 | 0.00 | 0.00 | 57 | 1011.2 |
| 20260505022934 | 64 | 298 | 1.7 | 1.7 | 0.00 | 0.00 | 0.00 | 57 | 1011.1 |
| 20260505022432 | 64 | 302 | 1.7 | 1.7 | 0.00 | 0.00 | 0.00 | 57 | 1011.0 |
| 20260505021929 | 64 | 288 | 1.7 | 1.7 | 0.00 | 0.00 | 0.00 | 57 | 1011.2 |
| 20260505021425 | 65 | 292 | 1.7 | 1.7 | 0.00 | 0.00 | 0.00 | 56 | 1011.1 |
| 20260505020921 | 64 | 293 | 2.6 | 2.6 | 0.00 | 0.00 | 0.00 | 56 | 1011.2 |
| 20260505020416 | 65 | 311 | 2.6 | 2.6 | 0.00 | 0.00 | 0.00 | 57 | 1011.1 |
| 20260505015914 | 65 | 282 | 3.5 | 3.5 | 0.00 | 0.00 | 0.00 | 56 | 1011.0 |
| 20260505015411 | 65 | 252 | 1.7 | 2.6 | 0.00 | 0.00 | 0.00 | 57 | 1011.0 |
| 20260505014908 | 65 | 291 | 1.7 | 1.7 | 0.00 | 0.00 | 0.00 | 55 | 1010.7 |
| 20260505014405 | 66 | 301 | 1.7 | 1.7 | 0.00 | 0.00 | 0.00 | 54 | 1010.8 |
| 20260505013902 | 66 | 305 | 0.9 | 1.7 | 0.00 | 0.00 | 0.00 | 55 | 1010.8 |
| 20260505013358 | 66 | 302 | 0.9 | 0.9 | 0.00 | 0.00 | 0.00 | 55 | 1010.8 |
| 20260505012857 | 66 | 296 | 1.7 | 1.7 | 0.00 | 0.00 | 0.00 | 54 | 1010.6 |
| 20260505012355 | 66 | 314 | 0.9 | 1.7 | 0.00 | 0.00 | 0.00 | 55 | 1010.6 |
| 20260505011850 | 66 | 292 | 1.7 | 1.7 | 0.00 | 0.00 | 0.00 | 54 | 1010.6 |
| 20260505011347 | 66 | 304 | 0.9 | 0.9 | 0.00 | 0.00 | 0.00 | 56 | 1010.7 |
| 20260505010843 | 67 | 293 | 1.7 | 1.7 | 0.00 | 0.00 | 0.00 | 55 | 1010.6 |
| 20260505010339 | 67 | 300 | 1.7 | 1.7 | 0.00 | 0.00 | 0.00 | 55 | 1010.3 |
| 20260505005836 | 66 | 301 | 1.7 | 1.7 | 0.00 | 0.00 | 0.00 | 55 | 1010.4 |
| 20260505005333 | 66 | 302 | 0.9 | 0.9 | 0.00 | 0.00 | 0.00 | 59 | 1010.4 |
| 20260505004830 | 66 | 304 | 1.7 | 1.7 | 0.00 | 0.00 | 0.00 | 56 | 1010.3 |
| 20260505004326 | 65 | 305 | 0.9 | 0.9 | 0.00 | 0.00 | 0.00 | 58 | 1010.4 |
| 20260505003824 | 65 | 309 | 0.0 | 0.0 | 0.00 | 0.00 | 0.00 | 61 | 1010.3 |
| 20260505003321 | 66 | 309 | 0.0 | 0.0 | 0.00 | 0.00 | 0.00 | 61 | 1010.3 |
| 20260505002817 | 66 | 309 | 0.0 | 0.0 | 0.00 | 0.00 | 0.00 | 58 | 1010.2 |
| 20260505002314 | 65 | 309 | 0.0 | 0.9 | 0.00 | 0.00 | 0.00 | 61 | 1010.3 |
| 20260505001812 | 65 | 305 | 0.0 | 0.9 | 0.00 | 0.00 | 0.00 | 62 | 1010.3 |
| 20260505001309 | 65 | 306 | 0.0 | 0.0 | 0.00 | 0.00 | 0.00 | 63 | 1010.2 |
| 20260505000806 | 66 | 307 | 0.0 | 0.9 | 0.00 | 0.00 | 0.00 | 63 | 1010.1 |
| 20260505000304 | 66 | 310 | 0.0 | 0.0 | 0.00 | 0.00 | 0.00 | 60 | 1010.0 |
| 20260504235800 | 67 | 309 | 0.9 | 0.9 | 0.00 | 0.00 | 0.00 | 59 | 1010.2 |
| 20260504235256 | 67 | 304 | 0.0 | 0.9 | 0.00 | 0.00 | 0.00 | 61 | 1010.0 |
| 20260504234754 | 68 | 306 | 0.9 | 0.9 | 0.00 | 0.00 | 0.00 | 58 | 1010.0 |
| 20260504234252 | 69 | 308 | 0.9 | 0.9 | 0.00 | 0.00 | 0.00 | 57 | 1009.5 |
| 20260504233748 | 71 | 308 | 0.0 | 0.9 | 0.00 | 0.00 | 0.00 | 55 | 1009.9 |
| 20260504233243 | 71 | 313 | 0.9 | 0.9 | 0.00 | 0.00 | 0.00 | 48 | 1010.0 |
| 20260504232740 | 71 | 314 | 0.9 | 1.7 | 0.00 | 0.00 | 0.00 | 47 | 1009.9 |
| 20260504232237 | 72 | 316 | 0.9 | 1.7 | 0.00 | 0.00 | 0.00 | 47 | 1009.8 |
| 20260504231735 | 72 | 303 | 1.7 | 1.7 | 0.00 | 0.00 | 0.00 | 45 | 1009.5 |
| 20260504231231 | 72 | 314 | 0.9 | 1.7 | 0.00 | 0.00 | 0.00 | 45 | 1009.5 |
| 20260504230727 | 73 | 308 | 1.7 | 1.7 | 0.00 | 0.00 | 0.00 | 45 | 1009.9 |
| 20260504230226 | 73 | 301 | 2.6 | 2.6 | 0.00 | 0.00 | 0.00 | 43 | 1009.8 |
| 20260504225724 | 73 | 295 | 1.7 | 2.6 | 0.00 | 0.00 | 0.00 | 43 | 1009.9 |
| 20260504225220 | 73 | 303 | 2.6 | 2.6 | 0.00 | 0.00 | 0.00 | 41 | 1009.6 |
| 20260504224717 | 74 | 285 | 1.7 | 2.6 | 0.00 | 0.00 | 0.00 | 42 | 1009.9 |
| 20260504224214 | 74 | 296 | 2.6 | 2.6 | 0.00 | 0.00 | 0.00 | 42 | 1010.1 |
| 20260504223710 | 74 | 291 | 3.5 | 3.5 | 0.00 | 0.00 | 0.00 | 42 | 1010.2 |
| 20260504223206 | 74 | 282 | 3.5 | 3.5 | 0.00 | 0.00 | 0.00 | 40 | 1010.1 |
| 20260504222703 | 75 | 301 | 6.1 | 7.0 | 0.00 | 0.00 | 0.00 | 39 | 1010.2 |
| 20260504222200 | 75 | 296 | 3.5 | 3.5 | 0.00 | 0.00 | 0.00 | 41 | 1010.1 |
| 20260504221657 | 75 | 277 | 4.3 | 7.0 | 0.00 | 0.00 | 0.00 | 39 | 1009.9 |
| 20260504221155 | 76 | 282 | 6.1 | 7.0 | 0.00 | 0.00 | 0.00 | 39 | 1010.0 |
| 20260504220651 | 76 | 257 | 3.5 | 3.5 | 0.00 | 0.00 | 0.00 | 39 | 1010.1 |
| 20260504220149 | 76 | 208 | 5.2 | 7.0 | 0.00 | 0.00 | 0.00 | 40 | 1009.9 |
| 20260504215645 | 76 | 305 | 5.2 | 7.0 | 0.00 | 0.00 | 0.00 | 39 | 1010.0 |
| 20260504215142 | 76 | 269 | 4.3 | 6.1 | 0.00 | 0.00 | 0.00 | 39 | 1010.0 |
| 20260504214638 | 76 | 281 | 6.1 | 7.0 | 0.00 | 0.00 | 0.00 | 40 | 1010.0 |
| 20260504214134 | 76 | 267 | 4.3 | 7.8 | 0.00 | 0.00 | 0.00 | 41 | 1009.9 |
| 20260504213631 | 76 | 292 | 4.3 | 5.2 | 0.00 | 0.00 | 0.00 | 41 | 1009.9 |
| 20260504213128 | 76 | 288 | 5.2 | 6.1 | 0.00 | 0.00 | 0.00 | 39 | 1010.0 |
| 20260504212624 | 76 | 267 | 4.3 | 5.2 | 0.00 | 0.00 | 0.00 | 38 | 1009.6 |
| 20260504212121 | 76 | 262 | 5.2 | 6.1 | 0.00 | 0.00 | 0.00 | 37 | 1009.8 |
| 20260504211619 | 76 | 270 | 5.2 | 7.0 | 0.00 | 0.00 | 0.00 | 34 | 1009.5 |
| 20260504211115 | 77 | 278 | 6.1 | 7.0 | 0.00 | 0.00 | 0.00 | 33 | 1009.8 |
| 20260504210613 | 77 | 318 | 3.5 | 3.5 | 0.00 | 0.00 | 0.00 | 35 | 1009.9 |
| 20260504210109 | 77 | 293 | 6.1 | 7.0 | 0.00 | 0.00 | 0.00 | 35 | 1009.9 |
| 20260504205607 | 76 | 264 | 2.6 | 2.6 | 0.00 | 0.00 | 0.00 | 37 | 1010.0 |
| 20260504205104 | 77 | 298 | 2.6 | 3.5 | 0.00 | 0.00 | 0.00 | 37 | 1009.9 |
| 20260504204602 | 76 | 319 | 3.5 | 3.5 | 0.00 | 0.00 | 0.00 | 35 | 1010.2 |
| 20260504204101 | 76 | 276 | 2.6 | 3.5 | 0.00 | 0.00 | 0.00 | 37 | 1009.9 |
| 20260504203559 | 76 | 255 | 3.5 | 5.2 | 0.00 | 0.00 | 0.00 | 36 | 1010.0 |
| 20260504203056 | 76 | 324 | 2.6 | 3.5 | 0.00 | 0.00 | 0.00 | 37 | 1010.2 |
| 20260504202551 | 76 | 229 | 6.1 | 7.0 | 0.00 | 0.00 | 0.00 | 37 | 1010.2 |
| 20260504202048 | 76 | 303 | 7.0 | 7.8 | 0.00 | 0.00 | 0.00 | 37 | 1010.2 |
| 20260504201545 | 77 | 287 | 1.7 | 2.6 | 0.00 | 0.00 | 0.00 | 38 | 1010.3 |